Back to catalog

WESTFORD NEEDLES

AlivePO
NORAD 18962·DEBRIS·🇺🇸 United States

Launched May 9, 1963 from Vandenberg Space Force Base

Loading…

Next Passes (next 24 hours)

TLE

FreshSource: Space-Track

Epoch: Sep 14, 2026, 09:55 UTC

1 18962U 63014DN  26257.41331166  .00003107  00000-0  45981+0 0  9994
2 18962  86.4731 139.9898 1424990 145.5598 224.6527  8.76859867210353

Track WESTFORD NEEDLES in real time with AllMySat

Download on the App Store